User: anonymous   Login
Location: Unspecified
(0.0000°N, 0.0000°E)
Time: 06:38:59
(UTC+00:00)
Language:

Oscar 15 - Orbit

View from above orbital plane
View from above orbital plane
View from above satellite
View from above satellite

Ground track
Ground track

The orbit data is extracted from the following two-line orbital elements,

1 20438U 90005C   19081.89311663 -.00000031 +00000-0 +54731-5 0  9997
2 20438 098.8036 044.2901 0010460 144.1980 274.6167 14.31031372522110
Epoch (UTC): 22 March 2019 21:26:05
Eccentricity: 0.0010460
inclination: 98.8036°
perigee height: 781 km
apogee height: 796 km
right ascension of ascending node: 44.2901°
argument of perigee: 144.1980°
revolutions per day: 14.31031372
mean anomaly at epoch: 274.6167°
orbit number at epoch: 52211

The dashed part of the orbit path shows where the satellite is in the earth's shadow,  

DLR